Wind_Speed
18 16 15 15 15 13 12 11 11 11 12 13 14 15 17 19 23 27 30 33 34 34 38 40 42 44 45 45 44 44 46 46 48 48 47 49 50 50 51 53 53 53 53 51
13 12 12 11 9 9 8 9 9 8 8 9 10 10 12 15 18 22 24 28 31 33 35 38 40 42 42 42 42 41 42 44 47 47 46 47 49 49 49 51 53 53 51 50
8 7 6 5 5 5 4 4 4 5 5 5 4 4 5 9 13 17 19 23 26 28 29 33 37 39 40 41 40 39 41 43 43 42 42 45 47 48 49 49 51 52 52 52
3 3 2 1 0 1 0 1 1 2 1 1 1 2 1 3 7 11 14 17 22 23 24 28 33 34 35 35 35 36 37 38 38 39 40 42 44 47 48 49 50 51 51 52
1 1 3 3 4 3 4 3 4 4 4 4 4 4 4 2 4 8 9 11 15 18 21 23 27 29 30 31 32 33 35 35 35 35 36 38 42 43 46 48 48 48 47 48
4 4 5 6 7 7 7 7 7 7 7 6 6 5 6 4 5 6 7 9 12 14 16 17 23 26 24 26 28 29 30 33 33 33 31 33 36 39 42 43 43 45 45 45
7 7 7 7 8 8 8 8 9 8 8 8 7 6 6 5 6 6 6 7 9 11 12 14 18 21 21 22 23 23 26 28 28 27 28 29 30 32 36 39 40 41 42 43
9 9 8 9 9 9 8 7 8 7 8 7 7 7 6 5 5 6 7 7 7 8 9 11 13 17 19 20 21 21 23 25 26 26 28 29 29 31 34 37 39 40 41 42
9 9 10 10 9 8 7 8 8 8 8 8 7 6 6 6 7 8 7 6 5 6 7 8 9 12 16 18 18 18 19 22 23 25 27 29 29 30 33 36 38 38 38 39
9 10 11 10 9 8 8 7 8 8 6 7 6 6 6 8 8 8 6 6 6 6 5 6 8 11 13 15 16 17 19 21 21 22 23 26 27 29 31 34 38 39 40 40
10 11 11 11 10 9 9 8 8 9 8 7 6 6 6 7 7 7 6 5 4 5 5 5 6 10 12 15 17 19 20 21 22 23 23 24 25 27 29 32 34 37 38 39
10 11 11 11 10 9 9 9 8 7 8 8 7 5 5 5 5 4 3 2 3 4 5 6 7 10 12 14 17 20 21 23 24 24 25 26 26 26 29 31 33 34 35 36
11 11 10 10 10 9 9 9 8 7 7 6 6 6 5 5 4 2 2 3 4 5 6 7 9 11 13 14 17 20 22 24 25 26 27 28 29 30 31 33 35 35 36 37
10 9 9 9 9 9 8 7 7 7 6 5 5 5 4 3 2 1 2 3 5 7 8 10 11 13 15 16 18 21 24 26 28 29 30 32 33 34 35 36 37 38 39 40
9 8 8 8 8 8 7 6 5 5 4 3 2 2 1 1 1 2 3 4 6 8 9 11 13 14 16 18 20 23 26 28 30 31 33 35 36 37 38 39 40 40 41 42
7 6 6 6 5 5 5 5 4 4 3 2 2 1 1 2 4 5 6 7 8 10 11 13 15 17 19 21 23 25 28 31 33 35 36 38 39 40 41 41 42 43 44 44
5 5 4 4 4 3 3 3 3 3 2 2 3 3 4 5 6 8 9 10 11 12 14 16 18 20 23 25 27 30 33 35 37 39 40 42 44 45 46 46 46 46 47 47
4 4 4 4 3 2 2 2 2 3 3 4 5 6 7 8 9 10 11 13 14 16 18 20 23 25 27 30 32 34 36 38 40 43 44 46 47 48 49 49 50 50 51 50
4 3 3 3 3 3 2 2 3 4 5 6 7 8 9 10 11 13 15 17 19 21 23 25 27 29 32 34 36 38 40 42 44 46 47 49 50 51 52 52 53 53 53 54
4 4 3 3 3 3 4 4 4 5 6 7 9 10 11 13 15 17 19 21 23 25 27 29 31 34 36 38 40 42 44 46 47 49 50 51 53 53 54 55 56 56 56 56
4 4 4 4 4 5 6 6 7 7 9 10 11 13 15 17 19 21 23 25 27 29 31 34 36 38 40 42 44 46 48 49 51 53 54 55 55 56 57 58 58 58 58 58
4 4 5 5 5 6 7 8 9 10 11 13 14 16 18 20 22 24 26 29 31 33 35 37 40 42 44 46 47 49 51 53 55 56 57 58 58 59 59 59 59 59 59 59
5 5 6 6 6 7 8 9 10 12 14 15 17 19 21 23 25 27 29 32 34 36 38 41 43 45 47 50 52 53 55 56 57 58 59 59 59 59 59 59 59 58 58 57
5 6 7 7 8 9 10 11 13 14 16 18 20 22 24 26 29 31 33 35 37 39 41 43 45 48 50 52 54 55 56 58 59 59 59 60 60 59 59 58 57 56 55 55
6 7 8 9 10 11 12 14 15 17 19 21 23 25 27 29 32 34 35 37 39 41 43 46 48 50 51 53 54 56 58 59 60 60 60 60 60 59 58 57 56 55 54 53
8 9 10 11 12 13 15 16 18 20 21 24 26 28 30 32 34 36 38 40 41 44 46 48 50 51 52 54 55 57 58 58 58 58 58 58 58 58 57 56 55 54 53 52
Wind_Direction
279 279 276 276 280 277 276 277 280 280 277 271 261 257 252 242 234 229 227 227 225 222 220 219 219 219 218 219 219 218 221 223 223 223 223 223 222 222 225 226 227 229 231 234
280 279 276 275 274 273 276 281 282 274 272 273 270 269 254 238 233 231 230 225 224 221 219 218 220 220 219 218 218 218 220 220 220 222 223 223 222 223 224 226 227 228 231 234
282 283 279 273 270 277 288 285 282 273 266 273 287 281 257 238 234 228 225 223 221 220 220 218 219 220 220 219 219 220 222 222 221 222 220 221 221 223 223 225 228 230 231 234
270 292 313 302 237 18 77 81 118 116 78 69 49 52 127 211 215 215 219 220 221 219 214 215 217 217 216 217 217 218 223 222 222 223 222 224 225 225 225 227 230 232 233 236
152 79 71 88 93 81 93 95 112 103 80 77 71 57 82 138 192 206 207 209 211 212 211 217 219 217 218 218 218 221 223 221 221 223 224 226 226 227 228 228 230 232 233 234
109 93 92 96 95 96 102 102 96 89 88 91 68 69 90 108 138 169 179 198 205 206 210 215 217 217 220 220 220 223 226 226 225 224 224 226 228 229 230 230 231 232 234 235
104 94 98 103 101 100 104 103 90 81 85 89 82 75 90 97 115 129 148 174 186 194 202 209 214 218 221 221 223 227 225 227 230 230 227 228 231 233 233 233 235 237 238 240
96 95 101 102 104 100 97 95 93 84 86 86 86 81 88 96 107 122 134 142 170 189 194 202 213 220 222 226 231 235 234 234 235 235 234 236 237 238 236 236 237 238 239 240
91 98 100 100 106 101 105 103 101 98 92 91 87 90 91 106 110 117 123 128 150 173 194 208 215 221 225 232 233 237 240 240 240 238 238 240 242 241 242 241 241 239 240 243
95 100 101 99 99 98 102 106 101 93 89 96 92 92 98 109 115 118 118 126 139 157 182 210 221 223 229 230 230 240 248 246 243 242 242 242 241 243 244 245 245 245 245 246
105 102 98 92 91 95 100 103 103 99 94 105 108 104 107 114 118 121 125 132 152 161 178 196 216 228 239 238 241 243 249 251 250 249 249 250 249 248 247 248 249 249 249 250
110 109 100 94 91 94 100 102 102 96 93 103 102 110 114 122 127 136 148 167 180 200 209 223 238 238 246 248 251 249 253 255 253 253 254 256 257 255 254 254 255 256 255 254
111 112 103 96 94 97 102 102 105 99 94 96 92 91 108 127 128 146 185 204 218 231 241 246 253 253 255 256 257 258 257 257 255 255 256 257 258 259 259 258 258 258 259 259
110 110 102 95 96 100 101 101 104 102 97 96 86 83 96 104 119 151 222 246 253 261 259 259 261 264 264 264 262 262 263 261 258 259 261 261 261 261 261 261 261 260 261 260
111 107 101 99 103 101 96 93 101 103 100 96 86 85 96 49 315 305 301 287 276 273 273 272 273 273 272 272 270 270 270 269 267 266 265 263 263 262 262 263 263 262 261 260
112 106 100 103 107 98 88 85 86 79 78 69 36 11 327 295 292 290 298 298 292 285 283 280 280 279 276 274 273 272 273 273 272 271 269 266 265 265 265 265 264 263 263 262
107 108 102 108 109 99 88 74 65 48 38 19 2 343 320 307 302 299 294 294 294 289 286 283 281 281 280 280 279 276 275 274 273 273 271 269 268 267 267 266 266 265 264 263
97 99 91 92 89 87 73 49 22 4 350 341 335 330 323 312 307 305 300 295 292 291 290 289 287 285 284 283 281 279 277 276 275 274 272 271 270 270 269 268 267 266 265 264
83 82 78 72 69 66 40 9 344 338 334 330 328 327 323 318 313 310 305 301 298 296 294 293 292 290 288 286 284 282 280 278 276 275 273 272 272 271 270 268 267 266 265 265
69 64 56 50 45 39 27 17 2 351 338 333 330 327 324 322 317 313 309 306 303 300 297 295 294 292 291 288 286 284 283 281 279 278 276 275 273 272 272 271 270 268 267 266
57 49 39 34 30 27 13 6 357 351 345 339 334 330 327 324 321 317 313 310 306 304 301 299 298 296 294 292 289 286 285 284 282 280 279 277 276 274 273 273 272 270 269 267
42 33 25 15 8 359 351 346 342 337 333 331 327 325 324 322 320 318 315 311 308 306 304 302 301 299 297 295 292 289 287 286 284 282 280 279 277 276 275 273 271 270 269 266
27 17 8 2 356 346 339 335 331 328 327 325 323 322 320 319 318 316 314 312 309 307 304 303 301 299 297 294 292 291 289 287 286 285 283 281 279 277 276 274 273 271 269 266
355 350 346 342 338 334 330 328 326 325 323 322 321 320 319 318 317 315 313 311 309 307 305 304 302 300 298 296 293 291 290 288 287 285 284 282 281 279 278 276 273 271 268 266
328 329 330 330 329 327 326 325 324 324 323 322 321 320 320 319 317 316 314 312 310 309 307 305 303 302 299 297 296 294 292 290 288 287 285 283 281 280 278 276 273 270 268 265
313 317 319 321 323 323 323 323 323 323 323 323 322 322 321 321 320 318 316 314 313 311 309 308 306 304 302 300 298 296 294 293 291 289 287 285 283 281 279 276 272 270 266 263
Height
5611 5611 5609 5608 5607 5606 5605 5605 5604 5604 5603 5603 5603 5605 5607 5607 5610 5614 5619 5625 5631 5637 5644 5650 5657 5664 5671 5679 5687 5694 5701 5707 5713 5719 5725 5731 5736 5741 5747 5752 5757 5762 5766 5771
5607 5606 5605 5604 5604 5603 5603 5602 5602 5602 5601 5601 5602 5602 5604 5605 5607 5611 5616 5620 5626 5632 5638 5645 5652 5659 5666 5673 5681 5687 5693 5699 5706 5713 5718 5724 5729 5734 5740 5745 5749 5754 5758 5763
5604 5604 5602 5602 5602 5601 5601 5601 5601 5601 5601 5601 5601 5602 5603 5603 5605 5608 5612 5617 5622 5628 5634 5641 5648 5655 5661 5668 5674 5681 5687 5693 5700 5707 5712 5717 5722 5727 5732 5737 5741 5746 5751 5755
5603 5602 5602 5601 5601 5600 5600 5600 5600 5600 5601 5602 5603 5603 5604 5604 5605 5608 5611 5615 5619 5625 5630 5637 5643 5650 5657 5663 5669 5676 5682 5688 5695 5700 5706 5711 5716 5721 5726 5731 5735 5739 5743 5748
5602 5602 5601 5601 5601 5600 5601 5601 5601 5601 5601 5602 5603 5603 5605 5605 5607 5609 5612 5615 5619 5623 5629 5634 5640 5646 5653 5659 5666 5672 5678 5683 5689 5694 5701 5706 5711 5715 5720 5724 5728 5732 5736 5740
5603 5602 5602 5602 5602 5602 5602 5602 5602 5603 5603 5604 5605 5605 5607 5607 5609 5610 5613 5616 5620 5624 5629 5634 5640 5645 5651 5656 5662 5668 5673 5679 5684 5690 5695 5700 5705 5709 5713 5717 5720 5725 5729 5732
5604 5604 5603 5603 5603 5604 5604 5605 5605 5605 5605 5607 5607 5608 5609 5609 5611 5613 5615 5617 5621 5625 5630 5634 5639 5644 5649 5654 5660 5665 5670 5675 5680 5685 5690 5694 5699 5702 5706 5710 5714 5717 5721 5725
5605 5606 5605 5605 5606 5606 5606 5606 5608 5608 5608 5609 5610 5610 5612 5612 5613 5614 5617 5619 5622 5626 5630 5634 5639 5643 5648 5653 5658 5663 5667 5672 5676 5680 5684 5689 5693 5697 5700 5704 5707 5710 5714 5717
5607 5607 5607 5607 5608 5609 5609 5609 5610 5611 5610 5612 5613 5613 5614 5614 5616 5617 5619 5622 5625 5628 5631 5635 5639 5643 5647 5652 5656 5660 5664 5668 5672 5676 5680 5683 5687 5690 5694 5697 5700 5703 5706 5709
5609 5610 5610 5610 5611 5611 5611 5611 5612 5613 5613 5614 5615 5616 5617 5617 5618 5620 5622 5624 5626 5629 5632 5635 5639 5643 5646 5650 5654 5657 5661 5665 5668 5672 5674 5677 5680 5683 5686 5688 5691 5694 5697 5700
5611 5612 5613 5613 5613 5613 5614 5615 5615 5615 5616 5617 5618 5621 5619 5620 5621 5622 5624 5626 5628 5631 5633 5636 5639 5642 5645 5648 5651 5654 5657 5660 5664 5666 5669 5671 5673 5676 5678 5681 5683 5686 5688 5691
5614 5615 5615 5616 5616 5616 5616 5617 5618 5618 5619 5619 5620 5624 5621 5622 5624 5625 5626 5627 5629 5631 5633 5636 5638 5641 5643 5645 5648 5651 5653 5655 5658 5660 5662 5664 5666 5668 5670 5672 5674 5676 5678 5681
5617 5618 5619 5619 5621 5620 5620 5620 5621 5621 5621 5622 5623 5626 5623 5624 5625 5626 5627 5628 5630 5631 5633 5635 5637 5639 5641 5642 5644 5646 5648 5650 5652 5653 5655 5656 5658 5660 5661 5663 5665 5667 5668 5670
5620 5621 5622 5623 5622 5622 5623 5623 5623 5624 5624 5624 5625 5625 5625 5626 5627 5627 5628 5629 5630 5631 5632 5633 5634 5636 5637 5639 5640 5641 5642 5643 5644 5646 5647 5648 5650 5651 5652 5653 5654 5656 5657 5659
5622 5623 5623 5624 5624 5625 5625 5625 5626 5626 5626 5627 5627 5627 5627 5627 5628 5628 5628 5629 5629 5629 5630 5631 5631 5632 5633 5634 5634 5635 5635 5635 5636 5637 5637 5638 5639 5640 5640 5641 5642 5644 5645 5646
5624 5625 5625 5626 5626 5627 5627 5627 5628 5628 5628 5628 5628 5629 5628 5628 5628 5628 5628 5628 5627 5627 5627 5627 5627 5627 5628 5628 5627 5627 5627 5626 5626 5626 5627 5627 5627 5628 5628 5629 5630 5630 5632 5633
5626 5626 5627 5628 5628 5628 5629 5629 5629 5629 5629 5629 5629 5630 5628 5628 5628 5627 5627 5626 5626 5625 5625 5624 5623 5623 5622 5621 5620 5619 5618 5617 5616 5615 5615 5615 5615 5615 5615 5615 5616 5616 5617 5618
5628 5628 5628 5629 5630 5629 5632 5629 5629 5629 5629 5629 5628 5628 5628 5627 5627 5626 5625 5624 5623 5622 5621 5619 5618 5616 5615 5613 5611 5609 5608 5606 5604 5603 5602 5601 5601 5601 5600 5600 5600 5601 5601 5603
5629 5629 5629 5629 5629 5630 5630 5629 5629 5629 5629 5628 5627 5627 5626 5625 5624 5623 5622 5620 5619 5617 5615 5613 5611 5608 5606 5603 5601 5598 5596 5593 5591 5589 5588 5586 5585 5584 5584 5584 5583 5584 5584 5585
5630 5630 5631 5630 5630 5630 5631 5629 5628 5630 5628 5627 5626 5625 5624 5623 5622 5621 5618 5616 5613 5611 5608 5606 5603 5599 5596 5593 5589 5586 5583 5580 5577 5574 5572 5570 5568 5567 5566 5566 5565 5565 5566 5567
5631 5631 5631 5630 5630 5630 5630 5629 5629 5629 5629 5626 5624 5623 5621 5620 5618 5616 5613 5610 5607 5604 5601 5597 5593 5589 5585 5581 5576 5573 5569 5565 5561 5558 5555 5552 5550 5548 5547 5546 5546 5546 5546 5547
5632 5631 5631 5630 5630 5632 5629 5628 5628 5628 5625 5624 5622 5620 5618 5616 5613 5610 5607 5603 5600 5596 5592 5587 5583 5578 5573 5568 5563 5558 5553 5549 5545 5541 5537 5534 5531 5529 5527 5526 5526 5525 5526 5527
5632 5632 5631 5631 5632 5630 5628 5627 5626 5624 5623 5621 5619 5617 5614 5611 5608 5605 5601 5596 5592 5587 5582 5577 5571 5566 5560 5554 5548 5542 5537 5531 5526 5522 5518 5514 5511 5509 5507 5505 5505 5505 5505 5506
5633 5631 5631 5630 5629 5628 5626 5625 5624 5622 5620 5618 5615 5612 5609 5606 5602 5597 5593 5588 5582 5577 5571 5565 5559 5552 5546 5538 5531 5525 5519 5513 5507 5502 5498 5494 5491 5488 5486 5484 5484 5484 5484 5485
5632 5631 5630 5629 5628 5626 5624 5623 5621 5618 5616 5613 5610 5607 5603 5599 5594 5589 5584 5578 5572 5566 5559 5552 5545 5538 5530 5522 5515 5507 5500 5493 5488 5482 5477 5473 5470 5467 5465 5464 5463 5463 5464 5465
5630 5629 5628 5627 5625 5624 5622 5619 5617 5614 5611 5608 5604 5600 5596 5591 5586 5580 5574 5568 5561 5554 5546 5539 5530 5522 5514 5506 5498 5489 5481 5474 5468 5462 5457 5453 5449 5446 5444 5443 5443 5442 5444 5445